FW1299 Weather Reports


Display with metric or nautical units.
time (UTC)temp
F
wind
direction
speed
MPH
gust
MPH
rain 1hr
in
rain 24hr
in
rain mn
in
humidity
%
barometer
mb
20260831010119 73 239 0.0 0.0 0.00 0.04 0.04 100 1019.0
20260831005120 73 239 0.0 0.0 0.00 0.04 0.04 100 1018.8
20260831004121 73 239 0.0 0.0 0.00 0.04 0.04 100 1018.8
20260831003118 74 239 0.0 0.0 0.00 0.04 0.04 100 1018.4
20260831002112 74 239 0.0 0.0 0.00 0.04 0.04 100 1018.3
20260831000109 74 239 0.0 0.0 0.00 0.04 0.04 100 1018.4
20260830235106 74 239 0.0 0.0 0.00 0.04 0.04 100 1018.4
20260830234106 74 239 0.0 0.0 0.00 0.04 0.04 100 1018.3
20260830233107 74 239 0.0 0.0 0.00 0.04 0.04 100 1018.2
20260830232104 74 239 0.0 0.0 0.00 0.04 0.04 100 1018.4
20260830231105 75 239 0.0 0.0 0.00 0.04 0.04 100 1018.2
20260830225100 75 239 0.0 0.0 0.00 0.04 0.04 100 1018.3
20260830224101 76 239 0.0 0.0 0.00 0.04 0.04 100 1018.3
20260830221056 75 239 0.0 0.0 0.00 0.04 0.04 100 1018.2
20260830220056 76 239 0.0 0.0 0.04 0.04 0.04 100 1018.4
20260830215057 76 239 0.0 0.0 0.04 0.04 0.04 99 1018.4
20260830214056 76 239 0.0 1.0 0.04 0.04 0.04 99 1018.3
20260830213056 76 255 0.0 1.0 0.04 0.04 0.04 97 1018.2
20260830212056 77 212 0.0 1.0 0.04 0.04 0.04 96 1018.1
20260830211056 78 264 0.0 2.0 0.04 0.04 0.04 92 1018.2
20260830210057 81 202 0.0 1.0 0.00 0.00 0.00 87 1018.3
20260830205057 81 226 0.0 1.0 0.00 0.00 0.00 83 1018.2
20260830204056 82 137 0.0 2.0 0.00 0.00 0.00 83 1018.3
20260830203056 82 256 0.0 0.0 0.00 0.00 0.00 83 1018.4
20260830201054 82 253 1.0 5.0 0.00 0.00 0.00 80 1018.4
20260830200054 82 278 1.0 7.0 0.00 0.00 0.00 81 1018.6
20260830195107 83 260 0.0 3.0 0.00 0.00 0.00 78 1018.8
20260830194055 82 185 1.0 5.0 0.00 0.00 0.00 82 1018.8
20260830193054 81 274 1.0 6.0 0.00 0.00 0.00 82 1019.0
20260830192054 81 266 1.0 5.0 0.00 0.00 0.00 81 1019.1
20260830191048 82 217 1.0 5.0 0.00 0.00 0.00 81 1019.2
20260830185048 80 246 0.0 3.0 0.00 0.00 0.00 85 1019.7
20260830184049 79 212 1.0 3.0 0.00 0.00 0.00 86 1019.8
20260830182048 78 229 1.0 4.0 0.00 0.00 0.00 85 1019.7
20260830181049 79 283 1.0 6.0 0.00 0.00 0.00 84 1020.0
20260830180049 78 250 1.0 5.0 0.00 0.00 0.00 85 1020.0
20260830174043 79 278 0.0 6.0 0.00 0.00 0.00 84 1020.3
20260830173042 79 138 1.0 5.0 0.00 0.00 0.00 83 1020.5
20260830172043 79 285 2.0 7.0 0.00 0.00 0.00 82 1020.6
20260830171041 79 231 1.0 5.0 0.00 0.00 0.00 82 1020.5
20260830170041 78 254 1.0 4.0 0.00 0.00 0.00 84 1020.8
20260830165042 78 255 1.0 4.0 0.00 0.00 0.00 83 1020.8
20260830164042 78 271 1.0 4.0 0.00 0.00 0.00 82 1020.8
20260830163041 79 234 2.0 6.0 0.00 0.00 0.00 80 1020.9
20260830160041 76 210 2.0 6.0 0.00 0.00 0.00 84 1021.3
20260830155045 75 236 0.0 4.0 0.00 0.00 0.00 88 1021.4
20260830153041 73 242 0.0 4.0 0.00 0.00 0.00 89 1021.7
20260830151040 72 292 0.0 3.0 0.00 0.00 0.00 88 1021.8
20260830150038 71 188 0.0 2.0 0.00 0.00 0.00 91 1021.8
20260830145034 71 259 0.0 3.0 0.00 0.00 0.00 90 1021.9
20260830144031 71 146 1.0 5.0 0.00 0.00 0.00 89 1021.9
20260830143035 71 205 1.0 3.0 0.00 0.00 0.00 90 1021.9
20260830142036 70 280 1.0 4.0 0.00 0.00 0.00 91 1022.1
20260830141031 69 289 1.0 5.0 0.00 0.00 0.00 93 1022.3
20260830140035 68 207 0.0 3.0 0.00 0.00 0.00 95 1022.2
20260830135036 67 130 0.0 2.0 0.00 0.00 0.00 99 1022.5
20260830134034 66 274 0.0 2.0 0.00 0.00 0.00 100 1022.4
20260830133030 66 246 0.0 0.0 0.00 0.00 0.00 100 1022.5
20260830132035 64 246 0.0 0.0 0.00 0.00 0.00 100 1022.6
20260830131031 64 246 0.0 0.0 0.00 0.00 0.00 100 1022.7
20260830130035 64 246 0.0 0.0 0.00 0.00 0.00 100 1022.8
20260830125032 63 246 0.0 0.0 0.00 0.00 0.00 100 1022.7
20260830124033 63 246 0.0 0.0 0.00 0.00 0.00 100 1022.9
20260830123033 62 246 0.0 0.0 0.00 0.00 0.00 100 1022.9
20260830122031 62 246 0.0 0.0 0.00 0.00 0.00 100 1022.9
20260830121027 60 246 0.0 0.0 0.00 0.00 0.00 100 1023.0
20260830120027 59 246 0.0 0.0 0.00 0.00 0.00 100 1023.0
20260830115028 59 246 0.0 0.0 0.00 0.00 0.00 100 1022.9
20260830114033 58 246 0.0 0.0 0.00 0.00 0.00 100 1022.9
20260830113030 58 246 0.0 0.0 0.00 0.00 0.00 100 1022.9
20260830112030 57 246 0.0 0.0 0.00 0.00 0.00 100 1022.9
20260830111025 57 246 0.0 0.0 0.00 0.00 0.00 100 1022.7
20260830110030 56 246 0.0 0.0 0.00 0.00 0.00 100 1022.7
20260830105025 56 246 0.0 0.0 0.00 0.00 0.00 100 1022.8
20260830104020 56 246 0.0 0.0 0.00 0.00 0.00 100 1022.8
20260830103023 56 246 0.0 0.0 0.00 0.00 0.00 100 1022.8
20260830102030 55 246 0.0 0.0 0.00 0.00 0.00 100 1022.8
20260830101023 55 246 0.0 0.0 0.00 0.00 0.00 100 1022.7
20260830100024 55 246 0.0 0.0 0.00 0.00 0.00 100 1022.8
20260830095026 55 246 0.0 0.0 0.00 0.00 0.00 100 1022.7
20260830093024 55 246 0.0 0.0 0.00 0.00 0.00 100 1022.9
20260830092012 55 246 0.0 0.0 0.00 0.00 0.00 100 1022.8
20260830091012 55 246 0.0 0.0 0.00 0.00 0.00 100 1022.9
20260830090019 55 246 0.0 0.0 0.00 0.00 0.00 100 1022.8
20260830085014 55 246 0.0 0.0 0.00 0.00 0.00 100 1023.0
20260830084012 55 246 0.0 0.0 0.00 0.00 0.00 100 1023.1
20260830083020 55 246 0.0 0.0 0.00 0.00 0.00 100 1023.1
20260830081019 56 246 0.0 0.0 0.00 0.00 0.00 99 1023.3
20260830080012 56 246 0.0 0.0 0.00 0.00 0.00 100 1023.4
20260830075012 56 246 0.0 0.0 0.00 0.00 0.00 100 1023.4
20260830073011 55 246 0.0 0.0 0.00 0.00 0.00 99 1023.4
20260830072010 55 246 0.0 0.0 0.00 0.00 0.00 99 1023.3
20260830071012 55 246 0.0 0.0 0.00 0.00 0.00 100 1023.4
20260830070011 55 246 0.0 0.0 0.00 0.00 0.00 99 1023.4
20260830065009 55 246 0.0 0.0 0.00 0.00 0.00 99 1023.4
20260830064010 55 246 0.0 0.0 0.00 0.00 0.00 99 1023.4
20260830063007 55 246 0.0 0.0 0.00 0.00 0.00 99 1023.4
20260830062007 55 246 0.0 0.0 0.00 0.00 0.00 99 1023.4
20260830061004 55 246 0.0 0.0 0.00 0.00 0.00 99 1023.4
20260830055006 55 246 0.0 0.0 0.00 0.00 0.00 99 1023.5
20260830054007 55 246 0.0 0.0 0.00 0.00 0.00 99 1023.6
20260830052957 56 246 0.0 0.0 0.00 0.00 0.00 99 1023.5
20260830051957 56 246 0.0 0.0 0.00 0.00 0.00 98 1023.5
20260830050958 56 246 0.0 0.0 0.00 0.00 0.00 99 1023.4
20260830045957 56 246 0.0 0.0 0.00 0.00 0.00 99 1023.3
20260830044956 56 246 0.0 0.0 0.00 0.00 0.00 98 1023.3
20260830043957 56 246 0.0 0.0 0.00 0.00 0.00 98 1023.2
20260830042957 56 246 0.0 0.0 0.00 0.00 0.00 98 1023.3
20260830041957 57 246 0.0 0.0 0.00 0.00 0.00 98 1023.3
20260830040957 57 246 0.0 0.0 0.00 0.00 0.00 98 1023.2
20260830035954 57 246 0.0 0.0 0.00 0.00 0.00 98 1023.1
20260830034952 57 246 0.0 0.0 0.00 0.00 0.00 98 1023.2
20260830033954 57 246 0.0 0.0 0.00 0.00 0.00 97 1023.3
20260830032952 57 246 0.0 0.0 0.00 0.00 0.00 97 1023.2
20260830031953 58 246 0.0 0.0 0.00 0.00 0.00 97 1023.2
20260830030952 58 246 0.0 0.0 0.00 0.00 0.00 97 1023.1
20260830025950 58 246 0.0 0.0 0.00 0.00 0.00 97 1022.9
20260830024953 58 246 0.0 1.0 0.00 0.00 0.00 98 1022.9
20260830023949 58 246 0.0 0.0 0.00 0.00 0.00 96 1022.8
20260830021950 58 246 0.0 0.0 0.00 0.00 0.00 96 1022.9
20260830020950 59 246 0.0 0.0 0.00 0.00 0.00 96 1022.8
20260830015948 59 246 0.0 0.0 0.00 0.00 0.00 95 1022.8
20260830014950 59 246 0.0 0.0 0.00 0.00 0.00 94 1022.9
20260830013950 59 246 0.0 0.0 0.00 0.00 0.00 93 1022.7
20260830012949 60 246 0.0 0.0 0.00 0.00 0.00 93 1022.7
20260830011946 60 246 0.0 0.0 0.00 0.00 0.00 93 1022.7
20260830010948 60 246 0.0 0.0 0.00 0.00 0.00 92 1022.7